[[{"header":{"parameterUnit":"m.s-1","parameterCategory":1,"la1":30.2991,"la2":30.254,"lo1":-89.0895,"lo2":-89.0444,"dy":0.0017,"dx":0.0017,"nx":28,"ny":28,"refTime":"2026-02-18T03:00:00:Z","depth":0,"parameterNumber":2,"parameterNumberName":"U-component_of_WINDS"},"data":[0,0,0,0,0,0,0,0,0,0,0,0,0,0,0,0,0,0,0,0,0,0,0,0,0,0,0,0,0,0,0,0,0,0,0,0,0,0,0,0,0,0,0,0,0,0,0,0,0,0,0,0,0,0,0,0,0,0,0.9281,0.9282,0,0.9338,0.9338,0.9339,0.9353,0.9353,0.9352,0.9352,0.9413,0.9415,0.9417,0,0,0,0,0,0,0,0,0,0,0,0,0,0.919,0.9192,0.9281,0.9282,0.9283,0.9337,0.9338,0.9339,0.9353,0.9353,0.9352,0.9352,0.9413,0.9415,0.9417,0,0,0,0,0,0,0,0,0,0,0,0,0,0.9236,0.9192,0.9281,0.9296,0.9298,0.9337,0.9338,0.9339,0.9353,0.9353,0.9352,0.9352,0.9412,0.9415,0.9418,0.9447,0,0,0.9427,0.9428,0,0,0,0,0,0,0,0,0.9234,0.924,0.9293,0.9295,0.9297,0.9338,0.9329,0.9375,0.9353,0.9332,0.9352,0.9351,0.9389,0.9394,0.9405,0.945,0.9452,0.9427,0.9429,0.943,0.9431,0,0,0,0,0,0,0,0.9231,0.9237,0.9304,0.9294,0.9297,0.9302,0.9308,0.9337,0.9363,0.9334,0.9335,0.9342,0.939,0.9403,0.9407,0.9453,0.9427,0.9429,0.9431,0.9432,0.9526,0.9527,0,0,0,0,0,0,0.9224,0.9235,0.9302,0.9305,0.9264,0.9304,0.931,0.9325,0.9363,0.9368,0.9342,0.9342,0.9398,0.9404,0.9409,0.9447,0.943,0.9433,0.9434,0.9525,0.9526,0.9527,0,0,0,0,0,0,0.9222,0.923,0.93,0.927,0.9279,0.9306,0.9323,0.9327,0.9339,0.9369,0.9374,0.935,0.9398,0.9405,0.9437,0.9449,0.9434,0.9437,0.9524,0.9525,0.9526,0.9522,0,0,0,0,0,0,0.9219,0.9229,0.9239,0.927,0.9281,0.9325,0.9323,0.9328,0.9344,0.9345,0.9378,0.9383,0.9398,0.9433,0.944,0.9453,0.9439,0.9523,0.9525,0.9526,0.9521,0.9523,0.9524,0,0,0,0,0,0.9216,0.9236,0.924,0.9248,0.9294,0.9326,0.9332,0.9348,0.9345,0.9356,0.9375,0.9382,0.9447,0.9436,0.9445,0.9458,0.9523,0.9524,0.9526,0.9521,0.9522,0.9524,0,0,0,0,0,0,0.9207,0.9241,0.9245,0.9275,0.9298,0.9328,0.9343,0.935,0.9374,0.9374,0.9394,0.9401,0.9433,0.9449,0.9437,0.9489,0.9485,0.9488,0.9478,0.948,0.9481,0.9477,0.9441,0,0,0,0,0,0.9208,0.923,0.9259,0.9283,0.9294,0.9317,0.9331,0.9342,0.9366,0.9376,0.9397,0.9422,0.9448,0.9465,0.949,0.9523,0.9532,0.9537,0.9539,0.954,0.9543,0.9563,0.9566,0.9532,0.9532,0.9532,0,0,0.9212,0.9233,0.9245,0.9282,0.93,0.9324,0.9324,0.9349,0.9368,0.938,0.9412,0.9428,0.9457,0.949,0.9506,0.9505,0.9554,0.9542,0.9542,0.9545,0.9565,0.9568,0.9571,0.9533,0.9533,0.9533,0,0,0.923,0.9247,0.927,0.9289,0.9316,0.9332,0.9337,0.9367,0.9378,0.941,0.9421,0.9443,0.9487,0.9508,0.9524,0.9552,0.9559,0.9559,0.9567,0.9587,0.959,0.9592,0.9603,0.9607,0.9562,0.9562,0.9562,0,0.9231,0.9266,0.9281,0.9306,0.9322,0.9334,0.9358,0.9376,0.9411,0.9423,0.942,0.9477,0.9497,0.9536,0.9542,0.9555,0.9563,0.9556,0.9588,0.9591,0.9593,0.9604,0.9608,0.9562,0.9562,0.9562,0.9562,0,0.9266,0.9291,0.9306,0.9339,0.9357,0.9381,0.9402,0.9419,0.9428,0.9444,0.9477,0.9502,0.9533,0.9543,0.9552,0.9584,0.9582,0.9584,0.958,0.9596,0.9607,0.9611,0.9562,0.9562,0.9562,0.9562,0,0,0.928,0.9322,0.9327,0.9343,0.9375,0.9395,0.942,0.945,0.9465,0.9489,0.9512,0.955,0.9551,0.957,0.9582,0.9599,0.9621,0.9598,0.9599,0.9603,0.9659,0.9659,0.9663,0.9625,0.9626,0.9627,0.9657,0,0.9304,0.9348,0.9364,0.9401,0.9425,0.9437,0.9459,0.9482,0.9498,0.9521,0.9539,0.9566,0.9565,0.9577,0.9594,0.9614,0.9633,0.9612,0.9649,0.965,0.9642,0.9669,0.9668,0.9695,0.9661,0.9662,0.9662,0,0.9336,0.9361,0.94,0.9431,0.9441,0.9461,0.9491,0.9512,0.9539,0.955,0.957,0.9581,0.961,0.9604,0.9645,0.9631,0.9647,0.9659,0.966,0.9665,0.9658,0.9675,0.9704,0.9709,0.9669,0.9668,0.9668,0,0.9344,0.9387,0.9417,0.943,0.9465,0.9479,0.9495,0.9521,0.9539,0.9565,0.9577,0.9606,0.9622,0.9646,0.9665,0.9658,0.9705,0.97,0.9716,0.9715,0.9726,0.9725,0.9759,0.9734,0.9734,0.9734,0.9734,0,0.9369,0.9394,0.9421,0.9439,0.9467,0.9485,0.9513,0.953,0.9553,0.9577,0.9589,0.961,0.9634,0.9659,0.9674,0.9707,0.9714,0.9724,0.9728,0.9724,0.9723,0.9735,0.9735,0.9735,0.9735,0.9734,0.9734,0,0.9383,0.9402,0.9435,0.9466,0.9475,0.9495,0.9522,0.9541,0.9558,0.9587,0.9595,0.9621,0.9651,0.9672,0.9712,0.9722,0.9758,0.9761,0.9748,0.9751,0.9766,0.9765,0.981,0.9818,0.9786,0.9787,0.9787,0,0.9398,0.9417,0.945,0.9466,0.9482,0.9507,0.9525,0.9544,0.9562,0.9595,0.9611,0.9642,0.9668,0.9716,0.974,0.977,0.9775,0.9789,0.978,0.9775,0.9777,0.9776,0.9779,0.979,0.9791,0.9791,0.9791,0,0.9423,0.9432,0.9457,0.9485,0.9506,0.953,0.9553,0.9566,0.9589,0.961,0.9641,0.9661,0.9701,0.9732,0.9765,0.9783,0.9792,0.9794,0.9799,0.9795,0.9788,0.9794,0.9754,0.9793,0.9793,0.9792,0.9792,0.9792,0.9439,0.9457,0.9484,0.9511,0.9531,0.9553,0.9573,0.9592,0.9618,0.9651,0.9661,0.9694,0.9722,0.9767,0.9786,0.9812,0.9811,0.9819,0.9821,0.9823,0.9824,0.9783,0.9818,0.9818,0.9818,0.9818,0.9818,0,0.9466,0.9484,0.9509,0.9542,0.9564,0.9569,0.9596,0.9615,0.9643,0.9668,0.9693,0.973,0.9761,0.9786,0.9819,0.9835,0.984,0.9843,0.9843,0.9847,0.9822,0.9815,0.9839,0.9839,0.9839,0.9839,0.9839,0.9839,0.9483,0.9514,0.9526,0.9568,0.9586,0.9618,0.9633,0.9654,0.9674,0.9714,0.9739,0.9756,0.9782,0.9816,0.9845,0.9852,0.9864,0.9867,0.9875,0.9851,0.9849,0.9847,0.984,0.9869,0.9869,0.9898,0.9898,0.9898]},{"header":{"parameterUnit":"m.s-1","parameterCategory":1,"la1":30.2991,"la2":30.254,"lo1":-89.0895,"lo2":-89.0444,"dy":0.0017,"dx":0.0017,"nx":28,"ny":28,"refTime":"2026-02-18T03:00:00:Z","depth":0,"parameterNumber":3,"parameterNumberName":"V-component_of_WINDS"},"data":[0,0,0,0,0,0,0,0,0,0,0,0,0,0,0,0,0,0,0,0,0,0,0,0,0,0,0,0,0,0,0,0,0,0,0,0,0,0,0,0,0,0,0,0,0,0,0,0,0,0,0,0,0,0,0,0,0,0,3.1428,3.1428,0,3.1481,3.1482,3.1483,3.1467,3.1466,3.1465,3.1464,3.1518,3.152,3.1523,0,0,0,0,0,0,0,0,0,0,0,0,0,3.1313,3.1315,3.1428,3.1428,3.1429,3.1481,3.1482,3.1483,3.1467,3.1466,3.1464,3.1463,3.1517,3.152,3.1523,0,0,0,0,0,0,0,0,0,0,0,0,0,3.1364,3.1316,3.1428,3.1428,3.1428,3.1481,3.1482,3.1483,3.1467,3.1466,3.1464,3.1462,3.1516,3.152,3.1523,3.158,0,0,3.1535,3.1536,0,0,0,0,0,0,0,0,3.1361,3.1368,3.1427,3.1428,3.1428,3.1466,3.1461,3.1515,3.1468,3.1452,3.1464,3.1462,3.1502,3.1507,3.152,3.1582,3.1584,3.1535,3.1537,3.1539,3.154,0,0,0,0,0,0,0,3.1358,3.1366,3.1449,3.1428,3.1429,3.1425,3.1431,3.1472,3.1486,3.1454,3.1453,3.1459,3.1502,3.1517,3.1521,3.1585,3.1535,3.1538,3.1541,3.1542,3.1698,3.17,0,0,0,0,0,0,3.1354,3.1363,3.1447,3.1451,3.139,3.1429,3.1435,3.1455,3.1485,3.1488,3.1461,3.1458,3.1511,3.1517,3.1523,3.1593,3.1539,3.1542,3.1545,3.1696,3.1699,3.1701,0,0,0,0,0,0,3.1351,3.1361,3.1445,3.1407,3.1417,3.1432,3.1456,3.1457,3.1472,3.1491,3.1493,3.1473,3.151,3.1518,3.1566,3.1595,3.1544,3.1548,3.1694,3.1697,3.17,3.1732,0,0,0,0,0,0,3.1348,3.1361,3.1382,3.1407,3.1419,3.1487,3.1457,3.146,3.1479,3.1476,3.1503,3.1506,3.1509,3.1561,3.157,3.1599,3.155,3.1692,3.1695,3.1699,3.1728,3.1735,3.1741,0,0,0,0,0,3.1344,3.1388,3.1383,3.1393,3.1446,3.1489,3.1495,3.1499,3.1481,3.1503,3.1515,3.1505,3.159,3.1566,3.1576,3.1607,3.169,3.1694,3.1699,3.1725,3.1734,3.1741,0,0,0,0,0,0,3.1365,3.1391,3.1386,3.1439,3.1462,3.1486,3.1513,3.1508,3.1536,3.1532,3.1535,3.1541,3.1591,3.1603,3.1576,3.1664,3.1637,3.1644,3.1654,3.1663,3.1669,3.1666,3.1553,0,0,0,0,0,3.1376,3.1408,3.1429,3.1474,3.1486,3.1498,3.1517,3.1518,3.1541,3.155,3.1566,3.1589,3.1621,3.1642,3.1672,3.1729,3.1736,3.1756,3.1762,3.1767,3.1774,3.1807,3.1817,3.1715,3.1715,3.1715,0,0,3.1398,3.1417,3.1437,3.1479,3.1497,3.1531,3.1506,3.1543,3.1568,3.1556,3.1603,3.1615,3.1641,3.1695,3.1719,3.1707,3.1803,3.1773,3.1777,3.178,3.1812,3.1822,3.1831,3.1718,3.1717,3.1717,0,0,3.1458,3.1474,3.1515,3.1533,3.1561,3.1568,3.1578,3.1603,3.1612,3.1659,3.1651,3.1681,3.1736,3.1756,3.1773,3.1841,3.1834,3.1851,3.1886,3.1919,3.1927,3.1934,3.196,3.197,3.1857,3.1857,3.1857,0,3.1482,3.1534,3.1536,3.1575,3.1594,3.1585,3.1627,3.1644,3.168,3.1694,3.1679,3.1749,3.1766,3.1825,3.1842,3.1856,3.1868,3.1849,3.1925,3.1932,3.1939,3.1965,3.1974,3.1859,3.1859,3.1858,3.1858,0,3.1564,3.16,3.1629,3.1665,3.1688,3.1727,3.1737,3.176,3.1759,3.1768,3.1818,3.1838,3.1873,3.1887,3.1885,3.1946,3.1938,3.1924,3.1898,3.1951,3.1975,3.1984,3.1862,3.1861,3.186,3.186,0,0,3.1638,3.1676,3.1687,3.1704,3.1734,3.1762,3.1802,3.1837,3.1857,3.1882,3.1917,3.1964,3.1952,3.1972,3.1973,3.2001,3.2057,3.1984,3.1985,3.1999,3.2128,3.214,3.2151,3.2052,3.2053,3.2055,3.2126,0,3.1701,3.1772,3.1776,3.1841,3.1875,3.1867,3.1902,3.1925,3.1935,3.1966,3.1977,3.2011,3.1992,3.2004,3.2031,3.2044,3.2083,3.2039,3.2085,3.2087,3.2081,3.2163,3.2175,3.2242,3.2136,3.2137,3.2138,0,3.1785,3.1814,3.1882,3.191,3.1924,3.1955,3.1989,3.2018,3.2044,3.205,3.2072,3.207,3.2112,3.2083,3.2142,3.2112,3.2131,3.214,3.2143,3.2149,3.2117,3.2173,3.2262,3.2273,3.2153,3.2151,3.215,0,3.1835,3.1891,3.194,3.1954,3.1986,3.2009,3.2024,3.2048,3.207,3.2099,3.2113,3.2146,3.2165,3.2191,3.2199,3.2177,3.2258,3.2229,3.2265,3.2265,3.2284,3.2283,3.238,3.2293,3.2293,3.2292,3.2292,0,3.1907,3.1949,3.1963,3.1993,3.2041,3.2045,3.2093,3.2106,3.2128,3.2161,3.2155,3.2187,3.2193,3.2226,3.2231,3.2281,3.2288,3.2295,3.2296,3.2297,3.2296,3.2311,3.2307,3.2295,3.2294,3.2294,3.2293,0,3.1971,3.1982,3.2035,3.2062,3.2069,3.2104,3.2127,3.2156,3.2166,3.2208,3.2218,3.2234,3.2272,3.2282,3.2327,3.2331,3.239,3.2385,3.2381,3.2382,3.2418,3.2415,3.2529,3.2545,3.2445,3.2446,3.2447,0,3.2017,3.205,3.2081,3.2103,3.2119,3.2154,3.2177,3.2183,3.2206,3.224,3.2265,3.2303,3.2334,3.2396,3.2412,3.2447,3.2445,3.2482,3.245,3.245,3.2448,3.2447,3.2451,3.2489,3.249,3.2491,3.2491,0,3.2099,3.2103,3.2135,3.2171,3.2198,3.2226,3.2252,3.227,3.228,3.2307,3.2347,3.2371,3.2418,3.2457,3.2492,3.2507,3.2502,3.2501,3.2512,3.2514,3.2511,3.2515,3.24,3.2499,3.2498,3.2498,3.2497,3.2497,3.2157,3.2187,3.2214,3.2251,3.2272,3.2297,3.2327,3.2341,3.2374,3.2414,3.2415,3.2459,3.2485,3.2533,3.2551,3.2585,3.2574,3.2589,3.2593,3.2597,3.2601,3.2504,3.2591,3.2591,3.2591,3.2591,3.2591,0,3.224,3.2257,3.2291,3.233,3.2359,3.2351,3.238,3.2406,3.2445,3.247,3.2501,3.2548,3.2585,3.2604,3.2642,3.2666,3.2665,3.2676,3.2675,3.2679,3.2608,3.2596,3.2677,3.2677,3.2677,3.2677,3.2677,3.2677,3.2287,3.2338,3.2345,3.2407,3.2423,3.2467,3.2485,3.2509,3.2529,3.2582,3.2614,3.2626,3.2649,3.2689,3.2723,3.2728,3.2743,3.2756,3.276,3.2693,3.2684,3.2676,3.2665,3.2759,3.2759,3.2828,3.2829,3.2829]}]]